Location: Rioux
(40.7500°S, 175.7500°E)
Time: 09:37:38
(UTC+00:00)

Cosmos 1766 Rocket - Pass Details

Date: 12 June 2024
Orbit: 601 x 629 km, 82.5° (Epoch: 20 July)

Event Time Altitude Azimuth Distance (km) Brightness Sun altitude
Rises 18:17:51 0° 185° (S) 2,896 6.8 -14.8°
Reaches altitude 10° 18:20:06 10° 182° (S) 1,986 6.0 -14.4°
Maximum altitude 18:24:28 66° 99° (E) 676 3.9 -13.6°
Drops below altitude 10° 18:28:49 10° 16° (NNE) 1,971 6.6 -12.8°
Sets 18:31:02 0° 13° (NNE) 2,871 7.5 -12.4°
